Hourly Data Report for October 30, 2019

All times are specified in Local Standard Time (LST). Add 1 hour to adjust for Daylight Saving Time where and when it is observed.

WOODSTOCK NEWBRIDGE
NEW BRUNSWICK
Current Station Operator: ECCC - MSC

46°09'08.000" N
67°32'34.000" W
154.00 m
8105603
71606
EWD

Download Data

Hourly Data (October 2019)
Hourly Data Report for October 30, 2019
TIME Temp Definition
°C
Dew Point Definition
°C
Rel Hum Definition
%
Wind Dir Definition
10's deg

Wind Spd Definition
km/h
Visibility Definition
km
Stn Press Definition
kPa
Hmdx Definition


Wind Chill Definition


Weather Definition


00:00 7.8 7.3 97 17 5   100.78     LegendNANA
01:00 7.6 7.1 97 15 7   100.73     LegendNANA
02:00 7.7 7.1 96 17 8   100.72     LegendNANA
03:00 7.7 7.0 95 19 6   100.68     LegendNANA
04:00 7.6 6.9 95 16 8   100.59     LegendNANA
05:00 7.5 6.9 96 20 6   100.64     LegendNANA
06:00 7.5 7.0 96 20 5   100.69     LegendNANA
07:00 7.4 6.9 97 20 8   100.70     LegendNANA
08:00 7.5 7.1 97 19 7   100.74     LegendNANA
09:00 8.0 7.4 96 19 8   100.76     LegendNANA
10:00 8.3 7.4 94 20 8   100.74     LegendNANA
11:00 9.0 7.7 92 18 10   100.74     LegendNANA
12:00 9.8 8.5 92 16 8   100.71     LegendNANA
13:00 10.4 8.5 88 18 8   100.65     LegendNANA
14:00 11.0 9.0 88 20 10   100.66     LegendNANA
15:00 11.2 9.1 87 17 7   100.64     LegendNANA
16:00 11.6 9.2 85 17 5   100.62     LegendNANA
17:00 11.4 9.3 87 18 3   100.62     LegendNANA
18:00 10.6 9.3 91 17 4   100.63     LegendNANA
19:00 10.6 9.5 93 18 7   100.63     LegendNANA
20:00 10.4 9.5 94 18 9   100.58     LegendNANA
21:00 10.4 9.6 94 19 4   100.63     LegendNANA
22:00 10.5 9.5 94 19 6   100.59     LegendNANA
23:00 10.5 9.5 93 16 2   100.55     LegendNANA

Notes on Data Quality.

Legend

  • E = Estimated
  • M = Missing
  • NA = Not Available
Date modified: